Weather in Rudnichny

Russia / Kemerovo Oblast     56°04′58″N   86°15′12″E
temp.,
°C
wind,
m/s
gust,
m/s
humid.,
%
clouds,
%
prec.,
mm/h
press.,
hPa
HPBL,
m
9 december, thu
thu901:00−19sw3996100 0.1 1037293
04:00−20sw3996100 0.2 1038318
07:00−20sw499696 0.3 1040308
10:00−20sw4109699 0.1 1042360
13:00−18sw51293100 0.1 1042450
16:00−18sw51493100 0.1 1042534
19:00−18sw61493100 0.1 1043509
22:00−18sw61593100 0.0 1043522
10 december, fri
fri1001:00−18ssw61593100 0.1 1043508
04:00−19ssw61593100 0.0 1043471
07:00−18ssw61693100 0.1 1042460
10:00−17ssw61593100 0.3 1041522
13:00−14sw51291100 0.4 1041604
16:00−13sw51191100 0.2 1041584
19:00−13ssw41193100 0.3 1042476
22:00−13ssw51292100 0.1 1041467
11 december, sat
sat1101:00−12ssw51393100 0.2 1040492
04:00−11ssw51491100 0.4 1039497
07:00−11ssw61589100 0.4 1038492
10:00−10ssw61783100 0.0 1036501
13:00−9ssw61778100 0.0 1033545
16:00−8ssw61777100 0.0 1030542
19:00−8ssw61777100 0.0 1028551
22:00−8ssw61677100 0.0 1025541
12 december, sun
sun1201:00−8sw51482100 0.0 1023575
04:00−9sw41187100 0.0 1022501
07:00−11sw3994100 0.0 1022340
10:00−12sw3796100 0.1 1022265
13:00−11wsw3693100 0.1 1022369
16:00−13w3694100 0.0 1022305
19:00−19wsw2499100 0.0 1025114
22:00−21wsw249998 0.0 1027109
13 december, mon
mon1301:00−19wsw269891 0.1 1027202
04:00−20sw2698100 0.1 1029237
07:00−20sw3798100 0.3 1030276
10:00−20ssw3897100 0.2 1030337
13:00−19ssw4895100 0.6 1029414
16:00−18ssw4995100 0.5 1029423
19:00−17ssw41094100 0.9 1028440
22:00−16s3995100 0.3 1026417